TimeEDT,TemperatureF,Dew PointF,Humidity,Sea Level PressureIn,VisibilityMPH,Wind Direction,Wind SpeedMPH,Gust SpeedMPH,PrecipitationIn,Events,Conditions,WindDirDegrees,DateUTC
12:15 AM,55.4,50.0,82,29.99,10.0,SW,3.5,-,N/A,,Clear,220,2013-05-07 04:15:00
12:35 AM,55.4,50.0,82,29.99,10.0,Calm,Calm,-,N/A,,Clear,0,2013-05-07 04:35:00
12:55 AM,53.6,51.8,94,29.99,10.0,Calm,Calm,-,N/A,,Clear,0,2013-05-07 04:55:00
1:15 AM,53.6,50.0,88,29.99,10.0,Calm,Calm,-,N/A,,Clear,0,2013-05-07 05:15:00
1:35 AM,51.8,50.0,94,29.98,10.0,Calm,Calm,-,N/A,,Clear,0,2013-05-07 05:35:00
1:55 AM,51.8,50.0,94,29.98,10.0,Calm,Calm,-,N/A,,Clear,0,2013-05-07 05:55:00
2:15 AM,50.0,50.0,100,29.97,10.0,Calm,Calm,-,N/A,,Clear,0,2013-05-07 06:15:00
2:35 AM,53.6,50.0,88,29.97,10.0,Calm,Calm,-,N/A,,Clear,0,2013-05-07 06:35:00
2:55 AM,53.6,50.0,88,29.96,10.0,Calm,Calm,-,N/A,,Clear,0,2013-05-07 06:55:00
3:15 AM,53.6,50.0,88,29.96,10.0,SW,3.5,-,N/A,,Partly Cloudy,220,2013-05-07 07:15:00
3:35 AM,53.6,50.0,88,29.96,10.0,Calm,Calm,-,N/A,,Partly Cloudy,0,2013-05-07 07:35:00
3:55 AM,50.0,50.0,100,29.96,10.0,Calm,Calm,-,N/A,,Clear,0,2013-05-07 07:55:00
4:15 AM,50.0,50.0,100,29.95,10.0,Calm,Calm,-,N/A,,Clear,0,2013-05-07 08:15:00
4:35 AM,50.0,50.0,100,29.95,10.0,Calm,Calm,-,N/A,,Clear,0,2013-05-07 08:35:00
4:55 AM,50.0,50.0,100,29.95,10.0,SW,4.6,-,N/A,,Clear,220,2013-05-07 08:55:00
5:15 AM,53.6,50.0,88,29.96,10.0,SSW,5.8,-,N/A,,Clear,200,2013-05-07 09:15:00
5:35 AM,53.6,50.0,88,29.96,10.0,SSW,5.8,-,N/A,,Clear,210,2013-05-07 09:35:00
5:55 AM,53.6,50.0,88,29.96,10.0,South,3.5,-,N/A,,Clear,190,2013-05-07 09:55:00
6:15 AM,53.6,50.0,88,29.96,10.0,SSW,3.5,-,N/A,,Clear,200,2013-05-07 10:15:00
6:35 AM,51.8,50.0,94,29.97,10.0,SSW,3.5,-,N/A,,Clear,210,2013-05-07 10:35:00
6:50 AM,53.6,50.0,88,29.97,10.0,SSW,3.5,-,N/A,,Clear,200,2013-05-07 10:50:00
7:50 AM,57.2,53.6,88,29.98,10.0,West,5.8,-,N/A,,Clear,260,2013-05-07 11:50:00
8:50 AM,62.6,55.4,77,30.00,10.0,WSW,5.8,-,N/A,,Mostly Cloudy,240,2013-05-07 12:50:00
9:50 AM,66.2,57.2,73,30.01,10.0,WSW,9.2,-,N/A,,Overcast,240,2013-05-07 13:50:00
11:50 AM,69.8,57.2,64,30.00,10.0,SW,15.0,-,N/A,,Overcast,230,2013-05-07 15:50:00
12:50 PM,68.0,57.2,68,29.99,10.0,WSW,11.5,-,N/A,,Overcast,250,2013-05-07 16:50:00
1:50 PM,71.6,59.0,64,29.97,10.0,SW,13.8,-,N/A,,Scattered Clouds,220,2013-05-07 17:50:00
2:50 PM,73.4,59.0,61,29.95,10.0,WSW,19.6,-,N/A,,Scattered Clouds,250,2013-05-07 18:50:00
3:50 PM,75.2,57.2,53,29.93,10.0,WSW,17.3,-,N/A,,Scattered Clouds,240,2013-05-07 19:50:00
4:50 PM,75.2,53.6,47,29.93,10.0,West,19.6,-,N/A,,Mostly Cloudy,260,2013-05-07 20:50:00
5:50 PM,77.0,55.4,47,29.93,10.0,West,12.7,-,N/A,,Mostly Cloudy,270,2013-05-07 21:50:00
6:50 PM,73.4,53.6,50,29.94,10.0,WSW,11.5,-,N/A,,Mostly Cloudy,240,2013-05-07 22:50:00
7:50 PM,71.6,55.4,57,29.96,10.0,SW,5.8,-,N/A,,Mostly Cloudy,230,2013-05-07 23:50:00
8:15 PM,69.8,55.4,60,29.98,10.0,SW,6.9,-,N/A,,Mostly Cloudy,220,2013-05-08 00:15:00
8:35 PM,68.0,57.2,68,29.99,10.0,SW,9.2,-,N/A,Rain,Light Rain,220,2013-05-08 00:35:00
8:55 PM,68.0,57.2,68,30.00,10.0,South,5.8,-,N/A,,Mostly Cloudy,190,2013-05-08 00:55:00
9:15 PM,68.0,57.2,68,30.00,10.0,SSW,5.8,-,N/A,,Mostly Cloudy,210,2013-05-08 01:15:00
9:35 PM,68.0,57.2,68,30.01,10.0,SW,5.8,-,N/A,,Mostly Cloudy,220,2013-05-08 01:35:00
9:55 PM,66.2,57.2,73,30.01,10.0,SSW,5.8,-,N/A,,Partly Cloudy,210,2013-05-08 01:55:00
10:15 PM,64.4,57.2,77,30.02,10.0,SW,3.5,-,N/A,,Clear,220,2013-05-08 02:15:00
10:35 PM,62.6,57.2,82,30.03,10.0,SW,3.5,-,N/A,,Clear,220,2013-05-08 02:35:00
10:55 PM,62.6,57.2,82,30.03,10.0,Calm,Calm,-,N/A,,Clear,0,2013-05-08 02:55:00
11:15 PM,60.8,57.2,88,30.03,10.0,SSW,4.6,-,N/A,,Clear,210,2013-05-08 03:15:00
11:35 PM,60.8,57.2,88,30.04,10.0,Calm,Calm,-,N/A,,Clear,0,2013-05-08 03:35:00
11:55 PM,59.0,57.2,94,30.04,10.0,Calm,Calm,-,N/A,,Clear,0,2013-05-08 03:55:00